Date String (YYYY-MM-DD hh:mm:ss) UTC,Instrument flags,absolute air pressure of the measurement (hPa),sample flow rate (lpm),inlet stack bypass flow (lpm),air temperature of the measurement (°C),ambient temperature measured by the external sensor (°C),aerosol sample conditioner tube jacket temperature (°C),OPC LED temperature (°C),internal box temperature (°C),relative humidity of the measurement (%),span deviation,mass concentration of particles derived from Lorenz-Mie calculation of OPC scattering (μg/m³),mass concentration of particles derived from Lorenz-Mie calculation of OPC scattering (μg/m³),mass concentration of particles derived from Lorenz-Mie calculation of OPC scattering (μg/m³)
DateTimeUTC,F1_M11,P_M11,Q1_M11,Q2_M11,T1_M11,T2_M11,T3_M11,T4_M11,T5_M11,U1_M11,ZSPAN_M11,X0_M11,X2_M11,X1_M11
2024-05-03 18:00:00,SystemResetWarning,0821.3,4.99,000.00,024.9,024.4,000.0,033.0,026.8,020.3,0000.0,0019.60,0006.13,0004.34
2024-05-03 18:01:00,SystemResetWarning,0821.3,5.00,000.00,025.0,024.5,000.0,033.0,026.8,021.0,0000.0,0019.57,0006.01,0004.24
2024-05-03 18:02:00,SystemResetWarning,0821.3,5.02,000.00,025.1,024.6,000.0,033.0,026.9,020.8,0000.0,0019.17,0005.95,0004.16
2024-05-03 18:03:00,SystemResetWarning,0821.3,5.00,000.00,025.1,024.7,000.0,033.1,027.0,020.5,0000.0,0019.74,0005.83,0004.06
2024-05-03 18:04:00,SystemResetWarning,0821.3,4.99,000.00,025.2,024.7,000.0,033.1,027.1,020.7,0000.0,0019.81,0005.75,0003.99
2024-05-03 18:05:00,SystemResetWarning,0821.3,5.00,000.00,025.2,024.4,000.0,033.2,026.8,020.9,0000.0,0020.19,0005.66,0003.94
2024-05-03 18:06:00,SystemResetWarning,0821.2,5.00,000.00,024.9,022.4,000.0,033.3,025.8,020.9,0000.0,0019.85,0005.58,0003.88
2024-05-03 18:07:00,SystemResetWarning,0821.2,5.00,000.00,024.5,021.4,000.0,033.3,025.1,020.9,0000.0,0019.50,0005.50,0003.84
2024-05-03 18:08:00,SystemResetWarning,0821.2,5.01,000.00,024.4,021.8,000.0,033.2,025.3,021.2,0000.0,0019.80,0005.42,0003.79
2024-05-03 18:09:00,SystemResetWarning,0821.2,5.00,000.00,024.3,022.2,000.0,033.0,025.5,021.3,0000.0,0020.03,0005.40,0003.75
2024-05-03 18:10:00,SystemResetWarning,0821.2,4.99,000.00,024.4,022.5,000.0,032.9,025.7,022.2,0000.0,0019.98,0005.32,0003.74
2024-05-03 18:11:00,SystemResetWarning,0821.2,5.00,000.00,024.4,022.9,000.0,032.9,026.0,021.5,0000.0,0020.86,0005.32,0003.74
2024-05-03 18:12:00,SystemResetWarning,0821.2,5.00,000.00,024.4,023.2,000.0,032.8,026.1,021.6,0000.0,0020.13,0005.29,0003.71
2024-05-03 18:13:00,SystemResetWarning,0821.2,5.00,000.00,024.5,023.5,000.0,032.8,026.3,021.6,0000.0,0020.42,0005.29,0003.67
2024-05-03 18:14:00,SystemResetWarning,0821.1,4.99,000.00,024.6,023.7,000.0,032.8,026.4,020.6,0000.0,0020.42,0005.26,0003.64
2024-05-03 18:15:00,SystemResetWarning,0821.2,4.99,000.00,024.6,023.9,000.0,032.8,026.5,020.2,0000.0,0021.70,0005.26,0003.61
2024-05-03 18:16:00,SystemResetWarning,0821.1,5.01,000.00,024.7,024.0,000.0,032.8,026.6,021.1,0000.0,0023.05,0005.29,0003.58
2024-05-03 18:17:00,SystemResetWarning,0821.1,5.01,000.00,024.8,024.2,000.0,032.8,026.6,021.5,0000.0,0024.88,0005.34,0003.55
2024-05-03 18:18:00,SystemResetWarning,0821.1,4.99,000.00,024.8,024.3,000.0,032.9,026.7,021.5,0000.0,0024.84,0005.32,0003.51
2024-05-03 18:19:00,SystemResetWarning,0821.1,4.99,000.00,024.9,024.4,000.0,032.9,026.8,021.6,0000.0,0023.85,0005.33,0003.49
2024-05-03 18:20:00,SystemResetWarning,0821.6,5.00,000.00,025.0,024.5,000.0,032.9,026.8,021.0,0000.0,0023.34,0005.33,0003.47
2024-05-03 18:21:00,SystemResetWarning,0821.3,5.01,000.00,025.0,024.6,000.0,033.0,026.9,020.4,0000.0,0023.30,0005.36,0003.44
2024-05-03 18:22:00,SystemResetWarning,0821.0,4.98,000.00,024.9,023.4,000.0,033.1,026.2,020.9,0000.0,0021.94,0005.33,0003.41
2024-05-03 18:23:00,SystemResetWarning,0821.0,5.01,000.00,024.5,021.5,000.0,033.1,025.2,021.8,0000.0,0021.22,0005.34,0003.39
2024-05-03 18:24:00,SystemResetWarning,0821.0,5.02,000.00,024.2,021.5,000.0,033.1,025.1,020.6,0000.0,0020.11,0005.24,0003.36
2024-05-03 18:25:00,SystemResetWarning,0820.9,4.99,000.00,024.2,021.9,000.0,032.9,025.3,020.0,0000.0,0020.33,0005.22,0003.33
2024-05-03 18:26:00,SystemResetWarning,0820.9,5.00,000.00,024.2,022.3,000.0,032.8,025.5,019.2,0000.0,0020.82,0005.22,0003.32
2024-05-03 18:27:00,SystemResetWarning,0820.8,5.01,000.00,024.2,022.6,000.0,032.7,025.8,019.9,0000.0,0019.00,0005.16,0003.28
2024-05-03 18:28:00,SystemResetWarning,0820.9,5.01,000.00,024.3,023.0,000.0,032.7,026.0,018.9,0000.0,0016.97,0005.08,0003.24
2024-05-03 18:29:00,SystemResetWarning,0821.0,5.01,000.00,024.4,023.2,000.0,032.7,026.1,018.9,0000.0,0017.07,0005.04,0003.22
2024-05-03 18:30:00,SystemResetWarning,0821.1,4.98,000.00,024.4,023.5,000.0,032.7,026.2,018.6,0000.0,0016.60,0005.01,0003.20
2024-05-03 18:31:00,SystemResetWarning,0821.1,5.01,000.00,024.5,023.7,000.0,032.7,026.3,019.2,0000.0,0016.31,0004.94,0003.17
2024-05-03 18:32:00,SystemResetWarning,0821.2,5.01,000.00,024.6,023.9,000.0,032.7,026.4,018.8,0000.0,0016.13,0004.86,0003.14
2024-05-03 18:33:00,SystemResetWarning,0821.2,4.99,000.00,024.6,024.0,000.0,032.7,026.5,019.0,0000.0,0016.43,0004.89,0003.12
2024-05-03 18:34:00,SystemResetWarning,0821.2,5.00,000.00,024.7,024.2,000.0,032.7,026.6,018.5,0000.0,0017.73,0004.91,0003.10
2024-05-03 18:35:00,SystemResetWarning,0821.2,5.00,000.00,024.8,024.3,000.0,032.7,026.7,018.2,0000.0,0018.93,0004.95,0003.06
2024-05-03 18:36:00,SystemResetWarning,0821.1,5.02,000.00,024.9,024.4,000.0,032.8,026.7,018.1,0000.0,0018.19,0004.95,0003.05
2024-05-03 18:37:00,SystemResetWarning,0821.2,5.00,000.00,024.9,024.5,000.0,032.8,026.8,017.8,0000.0,0017.41,0004.95,0003.03
2024-05-03 18:38:00,SystemResetWarning,0821.3,5.00,000.00,025.0,024.6,000.0,032.9,026.8,017.6,0000.0,0017.58,0004.98,0003.02
2024-05-03 18:39:00,SystemResetWarning,0821.1,4.99,000.00,024.9,023.4,000.0,033.0,026.2,017.5,0000.0,0017.84,0004.96,0003.02
2024-05-03 18:40:00,SystemResetWarning,0821.0,5.02,000.00,024.6,022.2,000.0,033.0,025.5,018.3,0000.0,0017.14,0004.96,0003.02
2024-05-03 18:41:00,SystemResetWarning,0820.9,4.99,000.00,024.4,022.4,000.0,033.0,025.5,018.3,0000.0,0016.98,0005.00,0003.01
2024-05-03 18:42:00,SystemResetWarning,0820.9,5.00,000.00,024.4,022.7,000.0,032.9,025.7,018.2,0000.0,0017.39,0005.06,0003.04
2024-05-03 18:43:00,SystemResetWarning,0821.0,5.00,000.00,024.5,023.0,000.0,032.8,026.0,016.9,0000.0,0018.25,0005.12,0003.06
2024-05-03 18:44:00,SystemResetWarning,0821.0,4.99,000.00,024.5,023.3,000.0,032.8,026.2,016.1,0000.0,0018.78,0005.09,0003.04
2024-05-03 18:45:00,SystemResetWarning,0821.1,4.98,000.00,024.6,023.5,000.0,032.8,026.3,015.7,0000.0,0017.77,0005.07,0003.05
2024-05-03 18:46:00,SystemResetWarning,0821.0,5.01,000.00,024.6,023.8,000.0,032.8,026.4,014.9,0000.0,0016.86,0005.07,0003.07
2024-05-03 18:47:00,SystemResetWarning,0821.0,5.01,000.00,024.7,023.9,000.0,032.8,026.5,016.2,0000.0,0017.05,0005.06,0003.04
2024-05-03 18:48:00,SystemResetWarning,0821.1,5.00,000.00,024.8,024.1,000.0,032.8,026.6,015.9,0000.0,0018.06,0005.09,0003.04
2024-05-03 18:49:00,SystemResetWarning,0820.9,4.99,000.00,024.8,024.2,000.0,032.8,026.7,015.7,0000.0,0018.16,0005.11,0003.06
2024-05-03 18:50:00,SystemResetWarning,0820.8,5.01,000.00,024.9,024.4,000.0,032.9,026.8,015.5,0000.0,0017.61,0005.08,0003.06
2024-05-03 18:51:00,SystemResetWarning,0820.8,4.99,000.00,024.9,023.9,000.0,032.9,026.4,013.4,0000.0,0017.67,0005.13,0003.02
2024-05-03 18:52:00,SystemResetWarning,0820.8,5.00,000.00,024.5,021.8,000.0,033.0,025.3,013.5,0000.0,0018.67,0005.10,0002.99
2024-05-03 18:53:00,SystemResetWarning,0820.8,5.02,000.00,024.2,021.2,000.0,033.0,025.0,014.7,0000.0,0018.66,0005.12,0002.99
2024-05-03 18:54:00,SystemResetWarning,0820.8,5.00,000.00,024.1,021.6,000.0,032.9,025.1,015.3,0000.0,0018.53,0005.12,0002.98
2024-05-03 18:55:00,SystemResetWarning,0820.8,5.00,000.00,024.1,022.0,000.0,032.7,025.3,015.2,0000.0,0018.13,0005.20,0003.01
2024-05-03 18:56:00,SystemResetWarning,0820.8,5.00,000.00,024.1,022.4,000.0,032.7,025.6,015.5,0000.0,0018.49,0005.22,0002.99
2024-05-03 18:57:00,SystemResetWarning,0820.8,5.01,000.00,024.2,022.8,000.0,032.6,025.8,015.3,0000.0,0018.87,0005.17,0003.01
2024-05-03 18:58:00,SystemResetWarning,0820.8,4.99,000.00,024.2,023.1,000.0,032.6,026.0,015.0,0000.0,0018.59,0005.16,0003.03
2024-05-03 18:59:00,SystemResetWarning,0820.8,5.00,000.00,024.3,023.3,000.0,032.6,026.1,015.3,0000.0,0017.87,0005.22,0003.04
